,,,PA_Meas_PMT16A,,PR_Meas_QMR101_102,,RH_Meas_QMH101,,SR_Meas_QMS101,,TA_Meas_QMH101,,GenWind,,GenWind,
date,time,status,PA,status,PR,status,RH,status,SR,status,TA,status,DirAvg,status,SpdAvg,
2012-05-27, 00:00:04,VALID,1008.24,VALID,0,VALID,104,VALID,0,VALID,23.9278,VALID,217,VALID,0,
2012-05-27, 00:01:04,VALID,1008.25,VALID,0,VALID,104,VALID,0,VALID,23.9278,VALID,217,VALID,0,
2012-05-27, 00:02:04,VALID,1008.29,VALID,0,VALID,104,VALID,0,VALID,23.9084,VALID,217,VALID,0,
2012-05-27, 00:03:04,VALID,1008.29,VALID,0,VALID,104,VALID,0,VALID,23.9084,VALID,217,VALID,0.255078,
2012-05-27, 00:04:04,VALID,1008.3,VALID,0,VALID,104,VALID,0,VALID,23.9084,VALID,217,VALID,0,
2012-05-27, 00:05:04,VALID,1008.34,VALID,0,VALID,104,VALID,0,VALID,23.9278,VALID,217,VALID,0,
2012-05-27, 00:06:04,VALID,1008.33,VALID,0,VALID,104,VALID,0,VALID,23.9084,VALID,217,VALID,0,
2012-05-27, 00:07:04,VALID,1008.37,VALID,0,VALID,104,VALID,0,VALID,23.9278,VALID,217,VALID,0.254687,
2012-05-27, 00:08:04,VALID,1008.39,VALID,0,VALID,104,VALID,0,VALID,23.8889,VALID,217,VALID,0.300391,
2012-05-27, 00:09:04,VALID,1008.4,VALID,0,VALID,104,VALID,0,VALID,23.8889,VALID,217,VALID,0.236328,
2012-05-27, 00:10:04,VALID,1008.4,VALID,0,VALID,104,VALID,0,VALID,23.8499,VALID,217,VALID,0.0933594,
2012-05-27, 00:11:04,VALID,1008.4,VALID,0,VALID,104,VALID,0,VALID,23.8499,VALID,217,VALID,0,
2012-05-27, 00:12:04,VALID,1008.4,VALID,0,VALID,104,VALID,0,VALID,23.8499,VALID,217,VALID,0,
2012-05-27, 00:13:04,VALID,1008.38,VALID,0,VALID,104,VALID,0,VALID,23.8304,VALID,217,VALID,0,
2012-05-27, 00:14:04,VALID,1008.36,VALID,0,VALID,104,VALID,0,VALID,23.8286,VALID,217,VALID,0,
2012-05-27, 00:15:04,VALID,1008.35,VALID,0,VALID,104,VALID,0,VALID,23.8499,VALID,217,VALID,0.0621094,
2012-05-27, 00:16:04,VALID,1008.36,VALID,0,VALID,104,VALID,0,VALID,23.8907,VALID,217,VALID,0.425781,
2012-05-27, 00:17:04,VALID,1008.39,VALID,0,VALID,104,VALID,0,VALID,23.8889,VALID,217,VALID,0.40625,
2012-05-27, 00:18:04,VALID,1008.43,VALID,0,VALID,104,VALID,0,VALID,23.9084,VALID,217,VALID,0.186719,
2012-05-27, 00:19:04,VALID,1008.46,VALID,0,VALID,104,VALID,0,VALID,23.9473,VALID,217,VALID,0.136328,
2012-05-27, 00:20:04,VALID,1008.49,VALID,0,VALID,104,VALID,0,VALID,23.9881,VALID,217,VALID,0.357812,
2012-05-27, 00:21:04,VALID,1008.51,VALID,0,VALID,104,VALID,0,VALID,24.0253,VALID,217,VALID,0.282031,
2012-05-27, 00:22:04,VALID,1008.52,VALID,0,VALID,104,VALID,0,VALID,24.0643,VALID,217,VALID,0.245703,
2012-05-27, 00:23:04,VALID,1008.51,VALID,0,VALID,104,VALID,0,VALID,24.1032,VALID,217,VALID,0.114063,
2012-05-27, 00:24:04,VALID,1008.53,VALID,0,VALID,104,VALID,0,VALID,24.1227,VALID,217,VALID,0,
2012-05-27, 00:25:04,VALID,1008.54,VALID,0,VALID,104,VALID,0,VALID,24.1227,VALID,217,VALID,0,
2012-05-27, 00:26:04,VALID,1008.53,VALID,0,VALID,104,VALID,0,VALID,24.1227,VALID,217,VALID,0,
2012-05-27, 00:27:04,VALID,1008.58,VALID,0,VALID,104,VALID,0,VALID,24.1227,VALID,217,VALID,0.158984,
2012-05-27, 00:28:04,VALID,1008.59,VALID,0,VALID,104,VALID,0,VALID,24.1227,VALID,217,VALID,0,
2012-05-27, 00:29:04,VALID,1008.64,VALID,0,VALID,104,VALID,0,VALID,24.1227,VALID,217,VALID,0,
2012-05-27, 00:30:04,VALID,1008.67,VALID,0,VALID,104,VALID,0,VALID,24.1227,VALID,217,VALID,0,
2012-05-27, 00:31:04,VALID,1008.68,VALID,0,VALID,104,VALID,0,VALID,24.0819,VALID,217,VALID,0,
2012-05-27, 00:32:04,VALID,1008.68,VALID,0,VALID,104,VALID,0,VALID,24.1014,VALID,217,VALID,0,
2012-05-27, 00:33:04,VALID,1008.69,VALID,0,VALID,104,VALID,0,VALID,24.1422,VALID,217,VALID,0,
2012-05-27, 00:34:04,VALID,1008.71,VALID,0,VALID,104,VALID,0,VALID,24.1422,VALID,217,VALID,0,
2012-05-27, 00:35:04,VALID,1008.65,VALID,0,VALID,104,VALID,0,VALID,24.1227,VALID,217,VALID,0,
2012-05-27, 00:36:04,VALID,1008.66,VALID,0,VALID,104,VALID,0,VALID,24.1032,VALID,217,VALID,0,
2012-05-27, 00:37:04,VALID,1008.64,VALID,0,VALID,104,VALID,0,VALID,24.1014,VALID,217,VALID,0.146094,
2012-05-27, 00:38:04,VALID,1008.62,VALID,0,VALID,104,VALID,0,VALID,24.1227,VALID,217,VALID,0,
2012-05-27, 00:39:04,VALID,1008.63,VALID,0,VALID,104,VALID,0,VALID,24.1227,VALID,217,VALID,0,
2012-05-27, 00:40:04,VALID,1008.61,VALID,0,VALID,104,VALID,0,VALID,24.1422,VALID,217,VALID,0,
2012-05-27, 00:41:04,VALID,1008.6,VALID,0,VALID,104,VALID,0,VALID,24.1227,VALID,217,VALID,0,
2012-05-27, 00:42:04,VALID,1008.55,VALID,0,VALID,104,VALID,0,VALID,24.1014,VALID,217,VALID,0,
2012-05-27, 00:43:04,VALID,1008.52,VALID,0,VALID,104,VALID,0.112112,VALID,24.1014,VALID,217,VALID,0,
2012-05-27, 00:44:04,VALID,1008.51,VALID,0,VALID,104,VALID,0,VALID,24.1422,VALID,217,VALID,0,
2012-05-27, 00:45:04,VALID,1008.47,VALID,0,VALID,104,VALID,0,VALID,24.1209,VALID,217,VALID,0,
2012-05-27, 00:46:04,VALID,1008.45,VALID,0,VALID,104,VALID,0.112112,VALID,24.1422,VALID,217,VALID,0,
2012-05-27, 00:47:04,VALID,1008.47,VALID,0,VALID,104,VALID,0,VALID,24.1209,VALID,217,VALID,0.504687,
2012-05-27, 00:48:04,VALID,1008.46,VALID,0,VALID,104,VALID,0,VALID,24.1227,VALID,273,VALID,0.603906,
2012-05-27, 00:49:04,VALID,1008.41,VALID,0,VALID,104,VALID,0,VALID,24.0429,VALID,292,VALID,0.534375,
2012-05-27, 00:50:04,VALID,1008.37,VALID,0,VALID,104,VALID,0,VALID,24.004,VALID,292,VALID,0.618359,
2012-05-27, 00:51:04,VALID,1008.33,VALID,0,VALID,104,VALID,0,VALID,23.9455,VALID,292,VALID,0.452734,
2012-05-27, 00:52:04,VALID,1008.29,VALID,0,VALID,104,VALID,0,VALID,23.9278,VALID,292,VALID,0.489453,
2012-05-27, 00:53:04,VALID,1008.22,VALID,0,VALID,104,VALID,0,VALID,23.9084,VALID,292,VALID,0.328906,
2012-05-27, 00:54:04,VALID,1008.17,VALID,0,VALID,104,VALID,0.112112,VALID,23.8694,VALID,292,VALID,0.310937,
2012-05-27, 00:55:04,VALID,1008.1,VALID,0,VALID,104,VALID,0,VALID,23.8694,VALID,292,VALID,0,
2012-05-27, 00:56:04,VALID,1008.03,VALID,0,VALID,104,VALID,0,VALID,23.8304,VALID,292,VALID,0,
2012-05-27, 00:57:04,VALID,1008,VALID,0,VALID,104,VALID,0,VALID,23.8109,VALID,292,VALID,0,
2012-05-27, 00:58:04,VALID,1007.97,VALID,0,VALID,104,VALID,0,VALID,23.8109,VALID,292,VALID,0,
2012-05-27, 00:59:04,VALID,1007.95,VALID,0,VALID,104,VALID,0,VALID,23.8109,VALID,292,VALID,0,
2012-05-27, 01:00:04,VALID,1007.92,VALID,0,VALID,104,VALID,0,VALID,23.7914,VALID,292,VALID,0,
2012-05-27, 01:01:04,VALID,1007.88,VALID,0,VALID,104,VALID,0,VALID,23.7914,VALID,292,VALID,0,
2012-05-27, 01:02:04,VALID,1007.88,VALID,0,VALID,104,VALID,0,VALID,23.7914,VALID,292,VALID,0,
2012-05-27, 01:03:04,VALID,1007.87,VALID,0,VALID,104,VALID,0,VALID,23.7507,VALID,292,VALID,0,
2012-05-27, 01:04:04,VALID,1007.92,VALID,0,VALID,104,VALID,0,VALID,23.7525,VALID,292,VALID,0,
2012-05-27, 01:05:04,VALID,1007.88,VALID,0,VALID,104,VALID,0,VALID,23.7117,VALID,292,VALID,0,
2012-05-27, 01:06:04,VALID,1007.92,VALID,0,VALID,104,VALID,0,VALID,23.733,VALID,292,VALID,0.625781,
2012-05-27, 01:07:04,VALID,1007.92,VALID,0,VALID,104,VALID,0,VALID,23.733,VALID,292,VALID,0.376953,
2012-05-27, 01:08:04,VALID,1007.89,VALID,0,VALID,104,VALID,0,VALID,23.7135,VALID,292,VALID,0.144141,
2012-05-27, 01:09:04,VALID,1007.9,VALID,0,VALID,104,VALID,0,VALID,23.6922,VALID,292,VALID,0.138672,
2012-05-27, 01:10:04,VALID,1007.91,VALID,0,VALID,104,VALID,0,VALID,23.694,VALID,292,VALID,0.0671875,
2012-05-27, 01:11:04,VALID,1007.92,VALID,0,VALID,104,VALID,0,VALID,23.6727,VALID,292,VALID,0,
2012-05-27, 01:12:04,VALID,1007.94,VALID,0,VALID,104,VALID,0,VALID,23.6532,VALID,292,VALID,0.00234375,
2012-05-27, 01:13:04,VALID,1007.94,VALID,0,VALID,104,VALID,0,VALID,23.6532,VALID,292,VALID,0.369141,
2012-05-27, 01:14:04,VALID,1007.94,VALID,0,VALID,104,VALID,0,VALID,23.6356,VALID,292,VALID,0.0410156,
2012-05-27, 01:15:04,VALID,1007.94,VALID,0,VALID,104,VALID,0,VALID,23.6143,VALID,292,VALID,0,
2012-05-27, 01:16:04,VALID,1007.96,VALID,0,VALID,104,VALID,0,VALID,23.6356,VALID,292,VALID,0,
2012-05-27, 01:17:04,VALID,1007.99,VALID,0,VALID,104,VALID,0,VALID,23.6356,VALID,292,VALID,0,
2012-05-27, 01:18:04,VALID,1008.01,VALID,0,VALID,104,VALID,0,VALID,23.6356,VALID,292,VALID,0,
2012-05-27, 01:19:04,VALID,1008.04,VALID,0,VALID,104,VALID,0,VALID,23.6745,VALID,292,VALID,0.485156,
2012-05-27, 01:20:04,VALID,1008.06,VALID,0,VALID,104,VALID,0,VALID,23.733,VALID,254,VALID,0.549219,
2012-05-27, 01:21:04,VALID,1008.07,VALID,0,VALID,104,VALID,0,VALID,23.772,VALID,225,VALID,0.682813,
2012-05-27, 01:22:04,VALID,1008.07,VALID,0,VALID,104,VALID,0,VALID,23.8109,VALID,215,VALID,0.773047,
2012-05-27, 01:23:04,VALID,1008.09,VALID,0,VALID,104,VALID,0,VALID,23.8091,VALID,210,VALID,0.776172,
2012-05-27, 01:24:04,VALID,1008.12,VALID,0,VALID,104,VALID,0.112112,VALID,23.8481,VALID,197,VALID,0.839844,
2012-05-27, 01:25:04,VALID,1008.16,VALID,0,VALID,104,VALID,0,VALID,23.9084,VALID,197,VALID,0.535156,
2012-05-27, 01:26:04,VALID,1008.19,VALID,0,VALID,104,VALID,0,VALID,23.8871,VALID,170,VALID,0.659766,
2012-05-27, 01:27:04,VALID,1008.23,VALID,0,VALID,104,VALID,0,VALID,23.926,VALID,149,VALID,0.827734,
2012-05-27, 01:28:04,VALID,1008.26,VALID,0,VALID,104,VALID,0,VALID,23.9473,VALID,147,VALID,0.892187,
2012-05-27, 01:29:04,VALID,1008.27,VALID,0,VALID,104,VALID,0,VALID,23.9455,VALID,131,VALID,1.32422,
2012-05-27, 01:30:04,VALID,1008.29,VALID,0,VALID,104,VALID,0,VALID,23.9845,VALID,124,VALID,0.852734,
2012-05-27, 01:31:04,VALID,1008.33,VALID,0,VALID,104,VALID,0,VALID,24.0448,VALID,114,VALID,0.717578,
2012-05-27, 01:32:04,VALID,1008.31,VALID,0,VALID,104,VALID,0,VALID,24.0429,VALID,111,VALID,0.922266,
2012-05-27, 01:33:04,VALID,1008.31,VALID,0,VALID,104,VALID,0,VALID,24.0837,VALID,88,VALID,1.10508,
2012-05-27, 01:34:04,VALID,1008.26,VALID,0,VALID,104,VALID,0,VALID,24.1014,VALID,87,VALID,1.38125,
2012-05-27, 01:35:04,VALID,1008.2,VALID,0,VALID,104,VALID,0,VALID,24.1599,VALID,81,VALID,1.43906,
2012-05-27, 01:36:04,VALID,1008.16,VALID,0,VALID,104,VALID,0,VALID,24.2202,VALID,78,VALID,1.26133,
2012-05-27, 01:37:04,VALID,1008.11,VALID,0,VALID,104,VALID,0,VALID,24.2183,VALID,90,VALID,1.08594,
2012-05-27, 01:38:04,VALID,1008.1,VALID,0,VALID,104,VALID,0,VALID,24.2183,VALID,80,VALID,0.853516,
2012-05-27, 01:39:04,VALID,1008.09,VALID,0,VALID,104,VALID,0,VALID,24.1988,VALID,64,VALID,0.735156,
2012-05-27, 01:40:04,VALID,1008.05,VALID,0,VALID,104,VALID,0,VALID,24.2007,VALID,67,VALID,1.20078,
2012-05-27, 01:41:04,VALID,1008.01,VALID,0,VALID,104,VALID,0,VALID,24.1599,VALID,76,VALID,1.29961,
2012-05-27, 01:42:04,VALID,1007.99,VALID,0,VALID,104,VALID,0,VALID,24.1422,VALID,68,VALID,1.33398,
2012-05-27, 01:43:04,VALID,1007.97,VALID,0,VALID,104,VALID,0,VALID,24.1209,VALID,63,VALID,1.025,
2012-05-27, 01:44:04,VALID,1007.99,VALID,0,VALID,104,VALID,0.112112,VALID,24.1422,VALID,75,VALID,1.12578,
2012-05-27, 01:45:04,VALID,1008,VALID,0,VALID,104,VALID,0,VALID,24.1209,VALID,81,VALID,0.823047,
2012-05-27, 01:46:04,VALID,1008.02,VALID,0,VALID,104,VALID,0,VALID,24.1422,VALID,64,VALID,0.560547,
2012-05-27, 01:47:04,VALID,1008.04,VALID,0,VALID,104,VALID,0,VALID,24.1422,VALID,80,VALID,0.329297,
2012-05-27, 01:48:04,VALID,1008.06,VALID,0,VALID,104,VALID,0,VALID,24.1209,VALID,80,VALID,0.378516,
2012-05-27, 01:49:04,VALID,1008.11,VALID,0,VALID,104,VALID,0,VALID,24.1209,VALID,80,VALID,0.0691406,
2012-05-27, 01:50:04,VALID,1008.12,VALID,0,VALID,104,VALID,0.112112,VALID,24.1404,VALID,80,VALID,0.198047,
2012-05-27, 01:51:04,VALID,1008.14,VALID,0,VALID,104,VALID,0,VALID,24.1617,VALID,176,VALID,0.610547,
2012-05-27, 01:52:04,VALID,1008.17,VALID,0,VALID,104,VALID,0,VALID,24.1812,VALID,183,VALID,0.668359,
2012-05-27, 01:53:04,VALID,1008.16,VALID,0,VALID,104,VALID,0,VALID,24.1599,VALID,179,VALID,0.510547,
2012-05-27, 01:54:04,VALID,1008.14,VALID,0,VALID,104,VALID,0,VALID,24.1404,VALID,179,VALID,0.103125,
2012-05-27, 01:55:04,VALID,1008.13,VALID,0,VALID,104,VALID,0,VALID,24.1599,VALID,179,VALID,0.180078,
2012-05-27, 01:56:04,VALID,1008.11,VALID,0,VALID,104,VALID,0.112112,VALID,24.1617,VALID,179,VALID,0.361328,
2012-05-27, 01:57:04,VALID,1008.03,VALID,0,VALID,104,VALID,0.112112,VALID,24.1404,VALID,177,VALID,0.513672,
2012-05-27, 01:58:04,VALID,1008,VALID,0,VALID,104,VALID,0,VALID,24.1812,VALID,124,VALID,0.485938,
2012-05-27, 01:59:04,VALID,1007.96,VALID,0,VALID,104,VALID,0,VALID,24.1404,VALID,124,VALID,0.273047,
2012-05-27, 02:00:04,VALID,1007.92,VALID,0,VALID,104,VALID,0.112112,VALID,24.1617,VALID,120,VALID,0.592969,
2012-05-27, 02:01:04,VALID,1007.86,VALID,0,VALID,104,VALID,0.112112,VALID,24.1209,VALID,88,VALID,0.630859,
2012-05-27, 02:02:04,VALID,1007.85,VALID,0,VALID,104,VALID,0,VALID,24.1014,VALID,87,VALID,0.453906,
2012-05-27, 02:03:04,VALID,1007.79,VALID,0,VALID,104,VALID,0,VALID,24.0819,VALID,87,VALID,0.776953,
2012-05-27, 02:04:04,VALID,1007.79,VALID,0,VALID,104,VALID,0,VALID,24.1227,VALID,104,VALID,0.765234,
2012-05-27, 02:05:04,VALID,1007.83,VALID,0,VALID,104,VALID,0,VALID,24.1014,VALID,106,VALID,0.896875,
2012-05-27, 02:06:04,VALID,1007.86,VALID,0,VALID,104,VALID,0,VALID,24.1227,VALID,104,VALID,0.750391,
2012-05-27, 02:07:04,VALID,1007.93,VALID,0,VALID,104,VALID,0,VALID,24.1422,VALID,105,VALID,0.409375,
2012-05-27, 02:08:04,VALID,1007.96,VALID,0,VALID,104,VALID,0,VALID,24.1617,VALID,132,VALID,1.10664,
2012-05-27, 02:09:04,VALID,1008.02,VALID,0,VALID,104,VALID,0.112112,VALID,24.1617,VALID,126,VALID,0.592578,
2012-05-27, 02:10:04,VALID,1008.03,VALID,0,VALID,104,VALID,0.112112,VALID,24.1209,VALID,126,VALID,0.746875,
2012-05-27, 02:11:04,VALID,1008.07,VALID,0,VALID,104,VALID,0,VALID,24.1014,VALID,126,VALID,0.793359,
2012-05-27, 02:12:04,VALID,1008.07,VALID,0,VALID,104,VALID,0,VALID,24.1014,VALID,126,VALID,0.514844,
2012-05-27, 02:13:04,VALID,1008.06,VALID,0,VALID,104,VALID,0,VALID,24.0624,VALID,127,VALID,0.728906,
2012-05-27, 02:14:04,VALID,1008.03,VALID,0,VALID,104,VALID,0,VALID,24.1032,VALID,129,VALID,0.742969,
2012-05-27, 02:15:04,VALID,1008,VALID,0,VALID,104,VALID,0,VALID,24.0819,VALID,152,VALID,0.429688,
2012-05-27, 02:16:04,VALID,1007.99,VALID,0,VALID,104,VALID,0,VALID,24.0624,VALID,152,VALID,0.3375,
2012-05-27, 02:17:04,VALID,1007.96,VALID,0,VALID,104,VALID,0.112112,VALID,24.0624,VALID,152,VALID,0.353125,
2012-05-27, 02:18:04,VALID,1007.94,VALID,0,VALID,104,VALID,0,VALID,24.0624,VALID,152,VALID,0.262891,
2012-05-27, 02:19:04,VALID,1007.93,VALID,0,VALID,104,VALID,0.112112,VALID,24.0429,VALID,152,VALID,0.276172,
2012-05-27, 02:20:04,VALID,1007.88,VALID,0,VALID,104,VALID,0,VALID,24.0429,VALID,152,VALID,0.422656,
2012-05-27, 02:21:04,VALID,1007.88,VALID,0,VALID,104,VALID,0.112112,VALID,24.0429,VALID,121,VALID,0.682422,
2012-05-27, 02:22:04,VALID,1007.82,VALID,0,VALID,104,VALID,0.112112,VALID,24.0624,VALID,101,VALID,0.75,
2012-05-27, 02:23:04,VALID,1007.81,VALID,0,VALID,104,VALID,0.112112,VALID,24.0624,VALID,100,VALID,0.575391,
2012-05-27, 02:24:04,VALID,1007.75,VALID,0,VALID,104,VALID,0,VALID,24.0837,VALID,100,VALID,0.506641,
2012-05-27, 02:25:04,VALID,1007.73,VALID,0,VALID,104,VALID,0.112112,VALID,24.1032,VALID,69,VALID,0.900781,
2012-05-27, 02:26:04,VALID,1007.69,VALID,0,VALID,104,VALID,0,VALID,24.1032,VALID,58,VALID,0.669922,
2012-05-27, 02:27:04,VALID,1007.65,VALID,0,VALID,104,VALID,0.112112,VALID,24.0624,VALID,43,VALID,0.875781,
2012-05-27, 02:28:04,VALID,1007.62,VALID,0,VALID,104,VALID,0.112112,VALID,24.0643,VALID,43,VALID,0.770703,
2012-05-27, 02:29:04,VALID,1007.6,VALID,0,VALID,104,VALID,0.112112,VALID,24.0235,VALID,42,VALID,0.907031,
2012-05-27, 02:30:04,VALID,1007.64,VALID,0,VALID,104,VALID,0,VALID,24.0058,VALID,42,VALID,0.646875,
2012-05-27, 02:31:04,VALID,1007.64,VALID,0,VALID,104,VALID,0,VALID,23.9668,VALID,42,VALID,0.316797,
2012-05-27, 02:32:04,VALID,1007.67,VALID,0,VALID,104,VALID,0.112112,VALID,23.9455,VALID,42,VALID,0.291406,
2012-05-27, 02:33:04,VALID,1007.71,VALID,0,VALID,104,VALID,0.112112,VALID,23.9455,VALID,42,VALID,0.401172,
2012-05-27, 02:34:04,VALID,1007.78,VALID,0,VALID,104,VALID,0.112112,VALID,23.9473,VALID,42,VALID,0.416797,
2012-05-27, 02:35:04,VALID,1007.85,VALID,0,VALID,104,VALID,0,VALID,23.9473,VALID,42,VALID,0.19375,
2012-05-27, 02:36:04,VALID,1007.92,VALID,0,VALID,104,VALID,0.112112,VALID,23.9455,VALID,42,VALID,0,
2012-05-27, 02:37:04,VALID,1007.96,VALID,0,VALID,104,VALID,0.112112,VALID,23.926,VALID,42,VALID,0,
2012-05-27, 02:38:04,VALID,1008,VALID,0,VALID,104,VALID,0.112112,VALID,23.926,VALID,42,VALID,0,
2012-05-27, 02:39:04,VALID,1008.03,VALID,0,VALID,104,VALID,0.112112,VALID,23.926,VALID,42,VALID,0.0128906,
2012-05-27, 02:40:04,VALID,1008.04,VALID,0,VALID,104,VALID,0.112112,VALID,23.9455,VALID,42,VALID,0.175781,
2012-05-27, 02:41:04,VALID,1008.04,VALID,0,VALID,104,VALID,0.112112,VALID,23.965,VALID,42,VALID,0.389844,
2012-05-27, 02:42:04,VALID,1008.05,VALID,0,VALID,104,VALID,0.112112,VALID,23.965,VALID,42,VALID,0.446875,
2012-05-27, 02:43:04,VALID,1008.09,VALID,0,VALID,104,VALID,0.112112,VALID,23.9845,VALID,188,VALID,0.535937,
2012-05-27, 02:44:04,VALID,1008.11,VALID,0,VALID,104,VALID,0,VALID,23.9845,VALID,188,VALID,0.692969,
2012-05-27, 02:45:04,VALID,1008.13,VALID,0,VALID,104,VALID,0,VALID,23.9863,VALID,187,VALID,1.00547,
2012-05-27, 02:46:04,VALID,1008.17,VALID,0,VALID,104,VALID,0.112112,VALID,23.9845,VALID,185,VALID,0.8,
2012-05-27, 02:47:04,VALID,1008.21,VALID,0,VALID,104,VALID,0.112112,VALID,24.004,VALID,201,VALID,1.09805,
2012-05-27, 02:48:04,VALID,1008.23,VALID,0,VALID,104,VALID,0.112112,VALID,24.0235,VALID,208,VALID,1.08477,
2012-05-27, 02:49:04,VALID,1008.31,VALID,0,VALID,104,VALID,0,VALID,24.0643,VALID,213,VALID,0.945313,
2012-05-27, 02:50:04,VALID,1008.32,VALID,0,VALID,104,VALID,0.112112,VALID,24.0624,VALID,210,VALID,0.982031,
2012-05-27, 02:51:04,VALID,1008.36,VALID,0,VALID,104,VALID,0,VALID,24.1032,VALID,218,VALID,0.659766,
2012-05-27, 02:52:04,VALID,1008.37,VALID,0,VALID,104,VALID,0,VALID,24.1227,VALID,219,VALID,0.485547,
2012-05-27, 02:53:04,VALID,1008.35,VALID,0,VALID,104,VALID,0.112112,VALID,24.1404,VALID,182,VALID,0.566016,
2012-05-27, 02:54:04,VALID,1008.33,VALID,0,VALID,104,VALID,0.112112,VALID,24.1617,VALID,182,VALID,0.595312,
2012-05-27, 02:55:04,VALID,1008.33,VALID,0,VALID,104,VALID,0,VALID,24.1599,VALID,182,VALID,0.254687,
2012-05-27, 02:56:04,VALID,1008.35,VALID,0,VALID,104,VALID,0.112112,VALID,24.1812,VALID,182,VALID,0.360156,
2012-05-27, 02:57:04,VALID,1008.33,VALID,0,VALID,104,VALID,0.112112,VALID,24.1812,VALID,182,VALID,0.290625,
2012-05-27, 02:58:04,VALID,1008.32,VALID,0,VALID,104,VALID,0,VALID,24.1812,VALID,182,VALID,0.26875,
2012-05-27, 02:59:04,VALID,1008.32,VALID,0,VALID,104,VALID,0,VALID,24.1617,VALID,182,VALID,0.504687,
2012-05-27, 03:00:04,VALID,1008.33,VALID,0,VALID,104,VALID,0,VALID,24.1599,VALID,175,VALID,0.563672,
2012-05-27, 03:01:04,VALID,1008.3,VALID,0,VALID,104,VALID,0,VALID,24.1617,VALID,165,VALID,0.390234,
2012-05-27, 03:02:04,VALID,1008.26,VALID,0,VALID,104,VALID,0,VALID,24.1812,VALID,165,VALID,0.498047,
2012-05-27, 03:03:04,VALID,1008.24,VALID,0,VALID,104,VALID,0,VALID,24.1617,VALID,165,VALID,0.237109,
2012-05-27, 03:04:04,VALID,1008.21,VALID,0,VALID,104,VALID,0.112112,VALID,24.1404,VALID,165,VALID,0.434375,
2012-05-27, 03:05:04,VALID,1008.22,VALID,0,VALID,104,VALID,0.112112,VALID,24.1404,VALID,165,VALID,0.259766,
2012-05-27, 03:06:04,VALID,1008.21,VALID,0,VALID,104,VALID,0,VALID,24.1617,VALID,165,VALID,0.417578,
2012-05-27, 03:07:04,VALID,1008.2,VALID,0,VALID,104,VALID,0,VALID,24.1617,VALID,165,VALID,0.499609,
2012-05-27, 03:08:04,VALID,1008.19,VALID,0,VALID,104,VALID,0.112112,VALID,24.1599,VALID,129,VALID,0.580469,
2012-05-27, 03:09:04,VALID,1008.19,VALID,0,VALID,104,VALID,0.112112,VALID,24.1599,VALID,125,VALID,0.445703,
2012-05-27, 03:10:04,VALID,1008.18,VALID,0,VALID,104,VALID,0.112112,VALID,24.1599,VALID,125,VALID,0.711719,
2012-05-27, 03:11:04,VALID,1008.19,VALID,0,VALID,104,VALID,0,VALID,24.1812,VALID,125,VALID,0.212109,
2012-05-27, 03:12:04,VALID,1008.17,VALID,0,VALID,104,VALID,0.112112,VALID,24.1599,VALID,131,VALID,0.657422,
2012-05-27, 03:13:04,VALID,1008.15,VALID,0,VALID,104,VALID,0,VALID,24.1988,VALID,142,VALID,0.370703,
2012-05-27, 03:14:04,VALID,1008.16,VALID,0,VALID,104,VALID,0.112112,VALID,24.2202,VALID,179,VALID,0.5875,
2012-05-27, 03:15:04,VALID,1008.12,VALID,0,VALID,104,VALID,0,VALID,24.2183,VALID,179,VALID,0.318359,
2012-05-27, 03:16:04,VALID,1008.1,VALID,0,VALID,104,VALID,0,VALID,24.2378,VALID,161,VALID,1.11055,
2012-05-27, 03:17:04,VALID,1008.09,VALID,0,VALID,104,VALID,0.112112,VALID,24.2378,VALID,160,VALID,0.865625,
2012-05-27, 03:18:04,VALID,1008.1,VALID,0,VALID,104,VALID,0,VALID,24.2378,VALID,161,VALID,0.342187,
2012-05-27, 03:19:04,VALID,1008.12,VALID,0,VALID,104,VALID,0.112112,VALID,24.2378,VALID,161,VALID,0.230078,
2012-05-27, 03:20:04,VALID,1008.09,VALID,0,VALID,104,VALID,0.112112,VALID,24.2591,VALID,161,VALID,0.495703,
2012-05-27, 03:21:04,VALID,1008.08,VALID,0,VALID,104,VALID,0.112112,VALID,24.2378,VALID,158,VALID,0.319531,
2012-05-27, 03:22:04,VALID,1008.06,VALID,0,VALID,104,VALID,0.112112,VALID,24.2591,VALID,158,VALID,0.244141,
2012-05-27, 03:23:04,VALID,1008.02,VALID,0,VALID,104,VALID,0.112112,VALID,24.2786,VALID,158,VALID,0.267188,
2012-05-27, 03:24:04,VALID,1008,VALID,0,VALID,104,VALID,0.112112,VALID,24.2786,VALID,158,VALID,0.4875,
2012-05-27, 03:25:04,VALID,1007.95,VALID,0,VALID,104,VALID,0,VALID,24.2786,VALID,158,VALID,0.462891,
2012-05-27, 03:26:04,VALID,1007.94,VALID,0,VALID,104,VALID,0.112112,VALID,24.2573,VALID,162,VALID,0.452734,
2012-05-27, 03:27:04,VALID,1007.94,VALID,0,VALID,104,VALID,0.112112,VALID,24.2786,VALID,162,VALID,0.382031,
2012-05-27, 03:28:04,VALID,1007.96,VALID,0,VALID,104,VALID,0,VALID,24.2786,VALID,169,VALID,0.294922,
2012-05-27, 03:29:04,VALID,1007.97,VALID,0,VALID,104,VALID,0,VALID,24.2786,VALID,169,VALID,0.307813,
2012-05-27, 03:30:04,VALID,1007.98,VALID,0,VALID,104,VALID,0,VALID,24.2981,VALID,169,VALID,0.188672,
2012-05-27, 03:31:04,VALID,1007.94,VALID,0,VALID,104,VALID,0,VALID,24.2573,VALID,169,VALID,0,
2012-05-27, 03:32:04,VALID,1007.92,VALID,0,VALID,104,VALID,0,VALID,24.2573,VALID,169,VALID,0,
2012-05-27, 03:33:04,VALID,1007.9,VALID,0,VALID,104,VALID,0,VALID,24.2786,VALID,169,VALID,0.00429688,
2012-05-27, 03:34:04,VALID,1007.87,VALID,0,VALID,104,VALID,0,VALID,24.2573,VALID,169,VALID,0.421875,
2012-05-27, 03:35:04,VALID,1007.84,VALID,0,VALID,104,VALID,0,VALID,24.2591,VALID,51,VALID,0.839844,
2012-05-27, 03:36:04,VALID,1007.82,VALID,0,VALID,104,VALID,0,VALID,24.2007,VALID,48,VALID,0.891797,
2012-05-27, 03:37:04,VALID,1007.78,VALID,0,VALID,104,VALID,0,VALID,24.1209,VALID,48,VALID,0.742188,
2012-05-27, 03:38:04,VALID,1007.75,VALID,0,VALID,104,VALID,0,VALID,24.1032,VALID,48,VALID,0.716406,
2012-05-27, 03:39:04,VALID,1007.72,VALID,0,VALID,104,VALID,0,VALID,24.0643,VALID,48,VALID,0.50625,
2012-05-27, 03:40:04,VALID,1007.71,VALID,0,VALID,104,VALID,0,VALID,24.0235,VALID,48,VALID,0.3375,
2012-05-27, 03:41:04,VALID,1007.73,VALID,0,VALID,104,VALID,0,VALID,24.004,VALID,48,VALID,0.126172,
2012-05-27, 03:42:04,VALID,1007.72,VALID,0,VALID,104,VALID,0,VALID,24.0058,VALID,48,VALID,0,
2012-05-27, 03:43:04,VALID,1007.75,VALID,0,VALID,104,VALID,0,VALID,24.0058,VALID,48,VALID,0.3875,
2012-05-27, 03:44:04,VALID,1007.75,VALID,0,VALID,104,VALID,0,VALID,24.004,VALID,172,VALID,0.773438,
2012-05-27, 03:45:04,VALID,1007.73,VALID,0,VALID,104,VALID,0,VALID,24.0643,VALID,183,VALID,0.919141,
2012-05-27, 03:46:04,VALID,1007.71,VALID,0,VALID,104,VALID,0,VALID,24.0624,VALID,184,VALID,0.876172,
2012-05-27, 03:47:04,VALID,1007.71,VALID,0,VALID,104,VALID,0,VALID,24.0624,VALID,184,VALID,0.569531,
2012-05-27, 03:48:04,VALID,1007.7,VALID,0,VALID,104,VALID,0.112112,VALID,24.0837,VALID,184,VALID,0.354688,
2012-05-27, 03:49:04,VALID,1007.7,VALID,0,VALID,104,VALID,0.112112,VALID,24.0819,VALID,184,VALID,0.353125,
2012-05-27, 03:50:04,VALID,1007.69,VALID,0,VALID,104,VALID,0,VALID,24.1032,VALID,184,VALID,0,
2012-05-27, 03:51:04,VALID,1007.66,VALID,0,VALID,104,VALID,0,VALID,24.1032,VALID,184,VALID,0.00351562,
2012-05-27, 03:52:04,VALID,1007.64,VALID,0,VALID,104,VALID,0.112112,VALID,24.0819,VALID,184,VALID,0.317187,
2012-05-27, 03:53:04,VALID,1007.59,VALID,0,VALID,104,VALID,0,VALID,24.0819,VALID,113,VALID,0.650781,